Back to catalog

STARLINK-32024

AliveCommunicationsVLEO
NORAD 60112·PAYLOAD·🇺🇸 United States

Launched Jun 23, 2024 from Cape Canaveral Space Force Station

Loading…

Next Passes (next 24 hours)

TLE

FreshSource: CelesTrak SupGP

Epoch: Sep 14, 2026, 14:00 UTC

1 60112C 24117X   26257.58381944 -.00023739  00000+0 -70128-3 0  2572
2 60112  53.1565 237.6302 0001145  98.5888   7.8115 15.34407244    14

Track STARLINK-32024 in real time with AllMySat

Download on the App Store